Location: Newport
(44.6370°N, 124.0520°W)
Time: 13:40:17
(UTC-07:00)

RS-15 - Visible Passes

Search period start: 24 April 2018 00:00
Search period end: 04 May 2018 00:00
Orbit: 1889 x 2156 km, 64.8° (Epoch: 23 April)

Date Brightness Start Highest point End Pass type
(mag) Time Alt. Az. Time Alt. Az. Time Alt. Az.
24 Apr 8.6 00:44:07 10° NW 00:55:23 50° NE 01:05:32 12° ESE visible
24 Apr 7.9 02:57:01 10° NW 03:08:12 61° WSW 03:13:11 36° S visible
24 Apr 9.2 05:14:08 10° WNW 05:17:48 12° W 05:20:48 11° WSW visible
24 Apr 9.6 21:52:27 10° WNW 22:02:16 28° N 22:11:42 10° NE visible
25 Apr 8.9 00:07:53 10° NW 00:18:51 42° NNE 00:29:16 10° ESE visible
25 Apr 7.8 02:20:50 10° NW 02:32:19 76° WSW 02:37:15 40° SSE visible
25 Apr 8.9 04:35:44 10° WNW 04:42:31 18° W 04:44:55 17° WSW visible
25 Apr 9.7 21:15:18 10° WNW 21:25:15 28° N 21:34:50 10° NE visible
25 Apr 9.1 23:31:33 10° NW 23:42:11 37° NNE 23:52:19 10° E visible
26 Apr 7.9 01:44:41 10° NW 01:56:20 88° NE 02:01:35 39° SE visible
26 Apr 8.7 03:58:35 10° NW 04:07:08 26° W 04:09:15 24° WSW visible
26 Apr 9.7 20:38:04 10° WNW 20:48:17 30° NNW 20:58:07 10° NE visible
26 Apr 9.3 22:55:06 10° NW 23:05:24 33° NNE 23:15:14 10° E visible
27 Apr 8.0 01:08:34 10° NW 01:20:13 73° NE 01:26:03 34° SE visible
27 Apr 8.4 03:21:55 10° NW 03:31:38 35° WSW 03:33:45 32° SW visible
27 Apr 9.4 22:18:30 10° NW 22:28:31 30° NNE 22:38:06 10° ENE visible
28 Apr 8.3 00:32:27 10° NW 00:43:58 61° NE 00:50:39 28° ESE visible
28 Apr 8.1 02:45:29 10° NW 02:56:01 46° WSW 02:58:20 41° SW visible
28 Apr 9.5 21:41:42 10° NW 21:51:32 28° N 22:00:59 10° ENE visible
28 Apr 8.5 23:56:17 10° NW 00:07:35 51° NE 00:15:19 21° ESE visible
29 Apr 8.0 02:09:11 10° NW 02:20:17 59° WSW 02:23:01 49° SSW visible
29 Apr 9.3 04:26:58 10° WNW 04:29:48 11° W 04:30:44 11° W visible
29 Apr 9.6 21:04:45 10° NW 21:14:32 28° N 21:23:58 10° ENE visible
29 Apr 8.8 23:20:03 10° NW 23:31:04 43° NE 23:40:04 15° E visible
30 Apr 7.8 01:33:00 10° NW 01:44:26 74° WSW 01:47:47 51° S visible
30 Apr 9.1 03:48:06 10° WNW 03:54:33 17° W 03:55:29 17° WSW visible
30 Apr 9.0 22:43:45 10° NW 22:54:25 37° NNE 23:04:34 10° E visible
01 May 7.8 00:56:51 10° NW 01:08:28 90° WSW 01:12:35 47° SSE visible
01 May 8.8 03:10:52 10° NW 03:19:10 25° W 03:20:18 24° WSW visible
01 May 9.2 22:07:19 10° NW 22:17:40 33° NNE 22:27:31 10° E visible
02 May 8.0 00:20:44 10° NW 00:32:22 75° NE 00:37:27 39° SE visible
02 May 8.5 02:34:08 10° NW 02:43:41 33° WSW 02:45:10 32° WSW visible
02 May 9.3 21:30:44 10° NW 21:40:46 30° NNE 21:50:23 10° ENE visible
02 May 8.2 23:44:36 10° NW 23:56:09 62° NE 00:02:22 30° ESE visible
03 May 8.2 01:57:40 10° NW 02:08:06 44° WSW 02:10:05 41° SW visible
03 May 9.5 20:53:59 10° NW 21:03:49 28° N 21:13:16 10° ENE visible
03 May 8.5 23:08:27 10° NW 23:19:47 52° NE 23:27:19 22° ESE visible
